Time,TemperatureF,DewpointF,PressureIn,WindDirection,WindDirectionDegrees,WindSpeedMPH,WindSpeedGustMPH,Humidity,HourlyPrecipIn,Conditions,Clouds,dailyrainin,SoftwareType,DateUTC
2013-08-18 00:02:00,-999.0,-99.9,30.19,East,85,0.0,1.0,-999,0.00,,,0.00,,2013-08-18 04:02:00,
2013-08-18 00:23:00,64.0,59.0,30.19,East,85,0.0,1.0,84,0.00,,,0.00,,2013-08-18 04:23:00,
2013-08-18 00:53:00,63.0,58.0,30.19,East,82,0.0,2.0,83,0.00,,,0.00,,2013-08-18 04:53:00,
2013-08-18 01:12:00,64.0,58.0,30.19,ENE,75,1.0,3.0,82,0.00,,,0.00,,2013-08-18 05:12:00,
2013-08-18 01:22:00,63.0,58.0,30.19,ESE,103,0.0,2.0,83,0.00,,,0.00,,2013-08-18 05:22:00,
2013-08-18 01:52:00,62.0,58.0,30.19,ESE,103,0.0,1.0,86,0.00,,,0.00,,2013-08-18 05:52:00,
2013-08-18 02:11:00,61.0,57.0,30.19,ESE,102,0.0,0.0,87,0.00,,,0.00,,2013-08-18 06:11:00,
2013-08-18 02:21:00,61.0,57.0,30.19,ESE,103,0.0,1.0,87,0.00,,,0.00,,2013-08-18 06:21:00,
2013-08-18 02:52:00,60.0,56.0,30.19,SSE,154,0.0,3.0,87,0.00,,,0.00,,2013-08-18 06:52:00,
2013-08-18 03:22:00,60.0,56.0,30.19,East,88,1.0,2.0,88,0.00,,,0.00,,2013-08-18 07:22:00,
2013-08-18 03:52:00,60.0,57.0,30.18,East,89,0.0,1.0,89,0.00,,,0.00,,2013-08-18 07:52:00,
2013-08-18 04:12:00,59.0,56.0,30.17,East,89,0.0,0.0,89,0.00,,,0.00,,2013-08-18 08:12:00,
2013-08-18 04:21:00,59.0,56.0,30.17,East,89,0.0,0.0,90,0.00,,,0.00,,2013-08-18 08:21:00,
2013-08-18 04:52:00,58.0,55.0,30.17,East,89,0.0,0.0,91,0.00,,,0.00,,2013-08-18 08:52:00,
2013-08-18 05:11:00,58.0,56.0,30.17,East,89,0.0,0.0,92,0.00,,,0.00,,2013-08-18 09:11:00,
2013-08-18 05:21:00,57.0,55.0,30.17,East,89,0.0,0.0,92,0.00,,,0.00,,2013-08-18 09:21:00,
2013-08-18 05:43:00,58.0,56.0,30.17,East,89,0.0,0.0,92,0.00,,,0.00,,2013-08-18 09:43:00,
2013-08-18 05:53:00,57.0,55.0,30.17,East,89,0.0,0.0,92,0.00,,,0.00,,2013-08-18 09:53:00,
2013-08-18 06:13:00,57.0,55.0,30.17,East,89,0.0,0.0,93,0.00,,,0.00,,2013-08-18 10:13:00,
2013-08-18 06:23:00,57.0,55.0,30.17,East,89,0.0,0.0,93,0.00,,,0.00,,2013-08-18 10:23:00,
2013-08-18 06:52:00,57.0,55.0,30.19,East,89,0.0,0.0,94,0.00,,,0.00,,2013-08-18 10:52:00,
2013-08-18 07:11:00,57.0,55.0,30.19,East,89,0.0,0.0,94,0.00,,,0.00,,2013-08-18 11:11:00,
2013-08-18 07:22:00,57.0,56.0,30.19,East,89,0.0,0.0,95,0.00,,,0.00,,2013-08-18 11:22:00,
2013-08-18 07:52:00,58.0,57.0,30.20,East,89,0.0,0.0,95,0.00,,,0.00,,2013-08-18 11:52:00,
2013-08-18 08:11:00,58.0,56.0,30.20,East,89,0.0,0.0,93,0.00,,,0.00,,2013-08-18 12:11:00,
2013-08-18 08:21:00,59.0,57.0,30.20,ESE,122,1.0,2.0,93,0.00,,,0.00,,2013-08-18 12:21:00,
2013-08-18 08:52:00,62.0,59.0,30.21,ESE,103,1.0,2.0,91,0.00,,,0.00,,2013-08-18 12:52:00,
2013-08-18 09:11:00,64.0,61.0,30.21,ESE,106,2.0,5.0,89,0.00,,,0.00,,2013-08-18 13:11:00,
2013-08-18 09:21:00,65.0,62.0,30.21,ESE,109,2.0,4.0,89,0.00,,,0.00,,2013-08-18 13:21:00,
2013-08-18 09:52:00,67.0,62.0,30.21,East,86,1.0,3.0,85,0.00,,,0.00,,2013-08-18 13:52:00,
2013-08-18 10:11:00,68.0,62.0,30.21,East,100,1.0,2.0,82,0.00,,,0.00,,2013-08-18 14:11:00,
2013-08-18 10:21:00,69.0,63.0,30.21,ESE,116,0.0,2.0,81,0.00,,,0.00,,2013-08-18 14:21:00,
2013-08-18 10:53:00,71.0,64.0,30.21,NW,317,2.0,4.0,79,0.00,,,0.00,,2013-08-18 14:53:00,
2013-08-18 11:12:00,71.0,64.0,30.21,NW,314,2.0,4.0,79,0.00,,,0.00,,2013-08-18 15:12:00,
2013-08-18 11:22:00,72.0,64.0,30.21,NNW,327,2.0,4.0,76,0.00,,,0.00,,2013-08-18 15:22:00,
2013-08-18 11:43:00,73.0,64.0,30.21,WNW,292,2.0,4.0,74,0.00,,,0.00,,2013-08-18 15:43:00,
2013-08-18 11:54:00,74.0,64.0,30.21,NW,318,1.0,5.0,72,0.00,,,0.00,,2013-08-18 15:54:00,
2013-08-18 12:13:00,75.0,65.0,30.20,North,350,1.0,6.0,72,0.00,,,0.00,,2013-08-18 16:13:00,
2013-08-18 12:23:00,74.0,64.0,30.20,WNW,298,3.0,5.0,71,0.00,,,0.00,,2013-08-18 16:23:00,
2013-08-18 12:42:00,75.0,64.0,30.20,West,280,2.0,6.0,69,0.00,,,0.00,,2013-08-18 16:42:00,
2013-08-18 12:52:00,76.0,64.0,30.19,West,279,1.0,5.0,66,0.00,,,0.00,,2013-08-18 16:52:00,
2013-08-18 13:13:00,78.0,62.0,30.19,ENE,76,3.0,5.0,59,0.00,,,0.00,,2013-08-18 17:13:00,
2013-08-18 13:24:00,78.0,63.0,30.19,SE,134,2.0,4.0,60,0.00,,,0.00,,2013-08-18 17:24:00,
2013-08-18 13:52:00,79.0,61.0,30.18,WSW,237,1.0,5.0,54,0.00,,,0.00,,2013-08-18 17:52:00,
2013-08-18 14:12:00,79.0,59.0,30.18,West,259,3.0,6.0,51,0.00,,,0.00,,2013-08-18 18:12:00,
2013-08-18 14:21:00,80.0,60.0,30.18,SW,236,1.0,5.0,51,0.00,,,0.00,,2013-08-18 18:21:00,
2013-08-18 14:52:00,79.0,62.0,30.17,NE,42,1.0,4.0,56,0.00,,,0.00,,2013-08-18 18:52:00,
2013-08-18 15:11:00,79.0,60.0,30.16,East,81,1.0,6.0,52,0.00,,,0.00,,2013-08-18 19:11:00,
2013-08-18 15:22:00,80.0,60.0,30.16,SSW,195,2.0,7.0,51,0.00,,,0.00,,2013-08-18 19:22:00,
2013-08-18 15:52:00,80.0,61.0,30.15,SE,134,4.0,9.0,52,0.00,,,0.00,,2013-08-18 19:52:00,
2013-08-18 16:12:00,80.0,61.0,30.14,SE,137,2.0,7.0,53,0.00,,,0.00,,2013-08-18 20:12:00,
2013-08-18 16:22:00,80.0,59.0,30.14,SW,223,2.0,5.0,49,0.00,,,0.00,,2013-08-18 20:22:00,
2013-08-18 16:52:00,80.0,59.0,30.14,SE,145,2.0,6.0,49,0.00,,,0.00,,2013-08-18 20:52:00,
2013-08-18 17:11:00,81.0,60.0,30.13,SSW,200,0.0,3.0,49,0.00,,,0.00,,2013-08-18 21:11:00,
2013-08-18 17:22:00,81.0,59.0,30.13,ENE,74,2.0,5.0,48,0.00,,,0.00,,2013-08-18 21:22:00,
2013-08-18 17:53:00,80.0,60.0,30.13,SE,136,4.0,6.0,51,0.00,,,0.00,,2013-08-18 21:53:00,
2013-08-18 18:13:00,80.0,60.0,30.13,SSE,161,0.0,5.0,51,0.00,,,0.00,,2013-08-18 22:13:00,
2013-08-18 18:23:00,81.0,60.0,30.12,SE,132,2.0,3.0,49,0.00,,,0.00,,2013-08-18 22:23:00,
2013-08-18 18:42:00,80.0,61.0,30.12,ESE,113,2.0,4.0,52,0.00,,,0.00,,2013-08-18 22:42:00,
2013-08-18 18:52:00,79.0,60.0,30.12,SE,138,3.0,4.0,52,0.00,,,0.00,,2013-08-18 22:52:00,
2013-08-18 19:11:00,79.0,60.0,30.12,SSE,149,0.0,3.0,52,0.00,,,0.00,,2013-08-18 23:11:00,
2013-08-18 19:22:00,79.0,60.0,30.11,SSE,168,1.0,2.0,53,0.00,,,0.00,,2013-08-18 23:22:00,
2013-08-18 19:52:00,77.0,63.0,30.12,SSE,168,0.0,0.0,62,0.00,,,0.00,,2013-08-18 23:52:00,
2013-08-18 20:12:00,76.0,63.0,30.12,SSE,168,0.0,0.0,65,0.00,,,0.00,,2013-08-19 00:12:00,
2013-08-18 20:21:00,76.0,65.0,30.12,SSE,168,0.0,0.0,69,0.00,,,0.00,,2013-08-19 00:21:00,
2013-08-18 20:42:00,76.0,65.0,30.12,SSE,168,0.0,0.0,68,0.00,,,0.00,,2013-08-19 00:42:00,
2013-08-18 20:52:00,74.0,64.0,30.12,SSE,168,0.0,0.0,72,0.00,,,0.00,,2013-08-19 00:52:00,
2013-08-18 21:11:00,72.0,64.0,30.13,SSE,168,0.0,0.0,77,0.00,,,0.00,,2013-08-19 01:11:00,
2013-08-18 21:22:00,71.0,65.0,30.13,SSE,168,0.0,0.0,81,0.00,,,0.00,,2013-08-19 01:22:00,
2013-08-18 21:42:00,70.0,65.0,30.13,SSE,168,0.0,0.0,83,0.00,,,0.00,,2013-08-19 01:42:00,
2013-08-18 21:52:00,69.0,64.0,30.13,SSE,168,0.0,0.0,84,0.00,,,0.00,,2013-08-19 01:52:00,
2013-08-18 22:11:00,68.0,63.0,30.14,SSE,168,0.0,0.0,85,0.00,,,0.00,,2013-08-19 02:11:00,
2013-08-18 22:22:00,67.0,62.0,30.14,SSE,168,0.0,0.0,85,0.00,,,0.00,,2013-08-19 02:22:00,
2013-08-18 22:42:00,67.0,63.0,30.14,SSE,168,0.0,0.0,87,0.00,,,0.00,,2013-08-19 02:42:00,
2013-08-18 22:52:00,66.0,62.0,30.14,SSE,168,0.0,0.0,88,0.00,,,0.00,,2013-08-19 02:52:00,
2013-08-18 23:11:00,66.0,63.0,30.14,SSE,168,0.0,0.0,90,0.00,,,0.00,,2013-08-19 03:11:00,
2013-08-18 23:21:00,65.0,62.0,30.14,SSE,168,0.0,1.0,90,0.00,,,0.00,,2013-08-19 03:21:00,
2013-08-18 23:42:00,65.0,63.0,30.14,NNW,340,0.0,1.0,92,0.00,,,0.00,,2013-08-19 03:42:00,
2013-08-18 23:53:00,64.0,61.0,30.14,NNW,340,0.0,1.0,91,0.00,,,0.00,,2013-08-19 03:53:00,